Terminal Aerodrome Forecast
Issued by NWS State College, PA

Home | Current Version | Previous Version | Text Only | Print | Product List | Glossary On
Versions: 1 2 3 4 5 6 7 8 9 10 11 12 13 14 15 16 17 18 19 20 21 22 23 24 25 26 27 28 29 30 31 32 33 34 35 36 37 38 39 40 41 42 43 44 45 46 47 48 49 50
000
FTUS41 KCTP 021733 CCA
TAFMDT
TAF COR
KMDT 021733Z 0218/0318 04005KT 3SM -RA BR SCT007 OVC012
      TEMPO 0218/0220 2SM -RA BR BKN008
     FM030800 01005KT 5SM BR OVC009
     FM031500 10006KT 6SM BR OVC015=

USA.gov is the U.S. government's official web portal to all federal, state and local government web resources and services.